Weather History for Al Udeid, Qatar

Change the Weather History Date:

Monday, August 19, 2013

  Actual Average Record
Temperature  
Mean Temperature 97 °F -  
Max Temperature 110 °F - - ()
Min Temperature 84 °F - - ()
Cooling Degree Days 32    
Growing Degree Days 47 (Base 50)    
Moisture  
Dew Point 76 °F    
Average Humidity 56    
Maximum Humidity 88    
Minimum Humidity 22    
Precipitation  
Precipitation 0.00 in - - ()
Sea Level Pressure  
Sea Level Pressure 29.50 in    
Wind  
Wind Speed 5 mph ()    
Max Wind Speed 15 mph    
Max Gust Speed -    
Visibility 6.2 miles    
Events      
T = Trace of Precipitation, MM = Missing Value Source: Averaged Metar Reports

Daily Weather History Graph

Daily Weather History Graph

Search for Another Location

Airport:

Trip Planner

Search our weather history database for the weather conditions in past years. The results will help you decide how hot, cold, wet, or windy it might be!

Date:

Astronomy

Aug. 19, 2013 Rise Set
Actual Time 5:10 AM AST 6:06 PM AST
Civil Twilight 4:46 AM AST 6:29 PM AST
Nautical Twilight 4:18 AM AST 6:57 PM AST
Astronomical Twilight 3:49 AM AST 7:26 PM AST
Moon 4:37 PM AST (8/19) 3:07 AM AST (8/19)
Length of Visible Light 13h 43m
Length of Day
12h 56m
Waxing Gibbous, 96% of the Moon is Illuminated
Aug 19
Waxing Gibbous
Aug 21
Full
Aug 28
Last Quarter
Sep 5
New
Sep 12
First Quarter

Hourly Weather History & Observations

Time (AST) Temp. Heat Index Dew Point Humidity Pressure Visibility Wind Dir Wind Speed Gust Speed Precip Events Conditions
12:55 AM 89.6 °F 109.6 °F 81.7 °F 77% 29.47 in 6.2 mi Calm Calm - N/A   Clear
1:55 AM 88.7 °F 108.0 °F 81.5 °F 79% 29.46 in 6.2 mi SSE 4.6 mph - N/A   Clear
2:55 AM 88.3 °F 107.4 °F 81.5 °F 80% 29.49 in 6.2 mi Calm Calm - N/A   Clear
3:55 AM 87.6 °F 107.5 °F 82.4 °F 84% 29.50 in 6.2 mi South 4.6 mph - N/A   Clear
4:55 AM 86.4 °F 104.3 °F 81.9 °F 86% 29.49 in 6.2 mi SE 3.5 mph - N/A   Clear
5:55 AM 84.7 °F 99.7 °F 80.8 °F 88% 29.50 in 5.6 mi SSE 3.5 mph - N/A   Clear
6:55 AM 88.5 °F 107.3 °F 81.3 °F 79% 29.53 in 6.2 mi NE 8.1 mph - N/A   Clear
7:55 AM 94.5 °F 111.5 °F 78.4 °F 60% 29.55 in 6.2 mi ENE 8.1 mph - N/A   Clear
8:55 AM 100.0 °F 112.7 °F 74.5 °F 44% 29.55 in 6.2 mi East 15.0 mph - N/A   Clear
9:55 AM 102.9 °F 115.2 °F 73.2 °F 39% 29.55 in 6.2 mi East 6.9 mph - N/A   Clear
10:55 AM 105.3 °F 114.9 °F 70.3 °F 33% 29.54 in 6.2 mi East 6.9 mph - N/A   Partly Cloudy
11:55 AM 108.7 °F 113.3 °F 65.1 °F 24% 29.52 in 6.2 mi East 5.8 mph - N/A   Scattered Clouds
12:55 PM 109.8 °F 113.4 °F 63.1 °F 22% 29.49 in 6.2 mi Calm Calm - N/A   Partly Cloudy
1:55 PM 110.8 °F 115.3 °F 64.0 °F 22% 29.47 in 6.2 mi Variable 4.6 mph - N/A   Clear
2:55 PM 109.4 °F 119.9 °F 70.7 °F 29% 29.46 in 6.2 mi East 11.5 mph - N/A   Clear
3:55 PM 107.2 °F 119.4 °F 72.7 °F 33% 29.46 in 6.2 mi East 13.8 mph - N/A   Clear
4:55 PM 103.3 °F 115.1 °F 73.4 °F 38% 29.46 in 6.2 mi East 13.8 mph - N/A   Clear
5:55 PM 99.9 °F 112.3 °F 74.5 °F 44% 29.47 in 6.2 mi ENE 10.4 mph - N/A   Clear
6:55 PM 96.8 °F 113.9 °F 78.3 °F 55% 29.49 in 6.2 mi ENE 8.1 mph - N/A   Clear
7:55 PM 95.0 °F 114.0 °F 79.7 °F 61% 29.52 in 6.2 mi East 9.2 mph - N/A   Clear
8:55 PM 93.6 °F 112.2 °F 79.5 °F 64% 29.53 in 6.2 mi East 4.6 mph - N/A   Clear
9:55 PM 92.3 °F 110.7 °F 79.7 °F 67% 29.54 in 6.2 mi NNE 3.5 mph - N/A   Clear
10:55 PM 91.8 °F 112.2 °F 81.1 °F 71% 29.54 in 6.2 mi ENE 3.5 mph - N/A   Clear
11:55 PM 91.2 °F 115.3 °F 82.9 °F 77% 29.53 in 6.2 mi NW 3.5 mph - N/A   Clear